Regional Weather Roundup
Issued by NWS

Home | Current Version | Previous Version | Text Only | Print | Product List | Glossary On
Versions: 1 2 3 4 5 6 7 8 9 10 11 12 13 14 15 16 17 18 19 20 21 22 23 24 25 26 27 28 29 30 31 32 33 34 35 36 37 38 39 40 41 42 43 44 45 46 47 48 49 50
000
ASUS45 KABQ 152310
RWRNM
NEW MEXICO REGIONAL WEATHER ROUNDUP
NATIONAL WEATHER SERVICE ALBUQUERQUE NM
500 PM MDT TUE OCT 15 2019

NOTE: "FAIR" MEANS FEW OR NO CLOUDS BELOW 12,000 FEET AGL WITH NO
       SIGNIFICANT WEATHER OR OBSTRUCTIONS TO VISION.

      THIS PRODUCT IS RELEASED AS TWO VERSIONS.  ONE VERSION NEAR
      THE TOP OF THE HOUR CONTAINING PRELIMINARY DATA FROM ALBUQUERQUE
      AND OTHER STATIONS.  A FINAL VERSION WITH ADDITIONAL DATA IS
      ISSUED ABOUT 10 MINUTES AFTER THE HOUR.

NMZ201-203-204-210>218-160000-
NORTHWEST PLATEAU/NORTHCENTRAL MOUNTAINS

CITY           SKY/WX    TMP DP  RH WIND       PRES   REMARKS
FARMINGTON     FAIR      72   8   8 W15G25    30.17S
LOS ALAMOS     FAIR      66  14  13 S8        30.25S
SANTA FE       FAIR      70  12  10 W10       30.19S
TAOS           FAIR      69  -1   6 SW7       30.24R
ANGEL FIRE     FAIR      60   2   9 W14       30.29R

$$
NMZ202-205>209-241-402-403-160000-
WESTCENTRAL MOUNTAINS/SOUTHWEST MOUNTAINS

CITY           SKY/WX    TMP DP  RH WIND       PRES   REMARKS
GALLUP         FAIR      70   9   9 NE7       30.24S
GRANTS         FAIR      69   9   9 N9        30.25R
SILVER CITY    FAIR      73  36  26 SW6       30.14S

$$
NMZ407-409-411-412-160000-
SOUTHERN DESERTS

CITY           SKY/WX    TMP DP  RH WIND       PRES   REMARKS
DEMING         FAIR      79  35  20 CALM      30.08S
LAS CRUCES     FAIR      80  29  15 NW7       30.10R
HOLLOMAN AFB   PTSUNNY   80  31  17 NW12      30.08S
ALAMOGORDO     FAIR      77  30  18 NW14      30.07S
T OR C         FAIR      78  23  13 VRB3      30.11S

$$
NMZ219>223-160000-
CENTRAL VALLEYS/CENTRAL HIGHLANDS

CITY           SKY/WX    TMP DP  RH WIND       PRES   REMARKS
ALBUQUERQUE    FAIR      75   9   8 NE6       30.16S
DOUBLE EAGLE   SUNNY     72  10   9 N8        30.19R
MORIARTY ARPT  FAIR      72  13  10 NW7       30.21R
CLINES CORNERS FAIR      67   8  10 W8G20     30.24R
BELEN          FAIR      74  15  11 N3        30.16S
SOCORRO        FAIR      76  18  11 N9        30.13S

$$
NMZ224>226-239-240-160000-
SOUTHCENTRAL MOUNTAINS

CITY           SKY/WX    TMP DP  RH WIND       PRES   REMARKS
RUIDOSO        CLOUDY    68  28  22 NW7       30.24R

$$
NMZ227>231-160000-
NORTHEAST HIGHLANDS/NORTHEAST PLAINS

CITY           SKY/WX    TMP DP  RH WIND       PRES   REMARKS
LAS VEGAS      FAIR      65  13  13 S16       30.22R
RATON          FAIR      69  11  10 S13G18    30.17R
CLAYTON        FAIR      62  24  23 NE13      30.18S

$$
NMZ232>237-160000-
EASTCENTRAL PLAINS

CITY           SKY/WX    TMP DP  RH WIND       PRES   REMARKS
TUCUMCARI      FAIR      70  26  19 E12       30.12R
CANNON AFB     FAIR      67  29  24 NE18      30.15R
CLOVIS AIRPORT FAIR      67  30  25 NE18      30.14R

$$
NMZ028-029-033-238-160000-
SOUTHEAST PLAINS

CITY           SKY/WX    TMP DP  RH WIND       PRES   REMARKS
ROSWELL        FAIR      82  29  14 NE13      30.03S
ARTESIA        FAIR      81  34  18 N15       30.03S
CARLSBAD       FAIR      82  38  20 W5        29.99S
HOBBS          SUNNY     81  30  16 N16       30.03R


$$



USA.gov is the U.S. government's official web portal to all federal, state and local government web resources and services.